Location: Laguna de la Cañada del Gallo
(40.3974°N, 5.2096°W)
Time: 05:52:09
(UTC+00:00)

Resurs 01 Rocket - Visible Passes

Search period start: 16 July 2024 00:00
Search period end: 26 July 2024 00:00
Orbit: 630 x 640 km, 97.8° (Epoch: 15 July)

Date Brightness Start Highest point End Pass type
(mag) Time Alt. Az. Time Alt. Az. Time Alt. Az.
17 Jul 2.3 20:32:02 10° S 20:36:19 54° W 20:40:39 10° NNW visible
18 Jul 3.3 20:54:27 10° SSW 20:58:20 31° W 21:02:14 10° NNW visible
19 Jul 4.1 21:17:23 10° SW 21:20:24 18° W 21:23:26 10° NW visible
20 Jul 4.6 21:42:02 10° W 21:42:32 10° W 21:43:03 10° W visible
21 Jul 2.0 20:23:13 10° S 20:27:34 68° WSW 20:31:58 10° NNW visible
22 Jul 3.0 20:45:28 10° SSW 20:49:33 38° W 20:53:40 10° NNW visible
23 Jul 3.9 21:08:10 10° SW 21:11:35 22° W 21:15:02 10° NW visible
24 Jul 4.4 21:31:41 10° WSW 21:33:41 13° W 21:35:43 10° WNW visible
25 Jul 1.7 20:14:26 10° SSE 20:18:49 85° W 20:23:14 10° NNW visible
